TimeMST,TemperatureF,Dew PointF,Humidity,Sea Level PressureIn,VisibilityMPH,Wind Direction,Wind SpeedMPH,Gust SpeedMPH,PrecipitationIn,Events,Conditions,WindDirDegrees,DateUTC
12:15 AM,33.8,12.2,41,30.11,10.0,SSW,8.1,-,N/A,,Clear,200,2012-12-13 07:15:00
12:55 AM,33.8,14.0,44,30.10,10.0,South,8.1,-,N/A,,Clear,190,2012-12-13 07:55:00
1:15 AM,35.6,14.0,41,30.10,10.0,South,8.1,-,N/A,,Clear,190,2012-12-13 08:15:00
1:35 AM,35.6,15.8,44,30.10,10.0,South,9.2,-,N/A,,Clear,180,2012-12-13 08:35:00
1:55 AM,33.8,15.8,48,30.10,10.0,South,9.2,-,N/A,,Clear,190,2012-12-13 08:55:00
2:15 AM,32.0,15.8,51,30.10,10.0,South,8.1,-,N/A,,Clear,180,2012-12-13 09:15:00
2:35 AM,32.0,14.0,48,30.10,10.0,SSW,3.5,-,N/A,,Clear,210,2012-12-13 09:35:00
2:55 AM,30.2,14.0,51,30.10,10.0,WSW,3.5,-,N/A,,Clear,240,2012-12-13 09:55:00
3:15 AM,26.6,14.0,59,30.10,10.0,WSW,3.5,-,N/A,,Clear,240,2012-12-13 10:15:00
3:35 AM,26.6,14.0,59,30.09,10.0,Calm,Calm,-,N/A,,Clear,0,2012-12-13 10:35:00
3:55 AM,32.0,15.8,51,30.09,10.0,SSW,6.9,-,N/A,,Clear,210,2012-12-13 10:55:00
5:50 AM,32.0,17.6,55,30.10,10.0,South,5.8,-,N/A,,Clear,190,2012-12-13 12:50:00
6:50 AM,32.0,19.4,60,30.11,10.0,SSW,4.6,-,N/A,,Clear,210,2012-12-13 13:50:00
7:45 AM,37.4,21.2,52,30.13,10.0,South,5.8,-,N/A,,Clear,180,2012-12-13 14:45:00
9:50 AM,51.8,23.0,33,30.14,10.0,South,9.2,-,N/A,,Clear,170,2012-12-13 16:50:00
10:50 AM,57.2,23.0,27,30.13,10.0,South,10.4,-,N/A,,Clear,170,2012-12-13 17:50:00
11:50 AM,60.8,23.0,23,30.09,10.0,South,8.1,-,N/A,,Clear,170,2012-12-13 18:50:00
12:50 PM,64.4,23.0,21,30.07,10.0,SSE,11.5,-,N/A,,Clear,150,2012-12-13 19:50:00
1:50 PM,64.4,23.0,21,30.04,10.0,SE,10.4,-,N/A,,Clear,140,2012-12-13 20:50:00
2:45 PM,64.4,23.0,21,30.02,10.0,SE,9.2,-,N/A,,Clear,140,2012-12-13 21:45:00
4:50 PM,55.4,24.8,31,30.03,10.0,SE,8.1,-,N/A,,Clear,140,2012-12-13 23:50:00
5:55 PM,50.0,28.4,43,30.03,10.0,SE,8.1,-,N/A,,Clear,130,2012-12-14 00:55:00
6:15 PM,50.0,32.0,50,30.03,10.0,SE,8.1,-,N/A,,Clear,130,2012-12-14 01:15:00
6:35 PM,50.0,32.0,50,30.03,10.0,ESE,8.1,-,N/A,,Clear,120,2012-12-14 01:35:00
6:55 PM,50.0,32.0,50,30.03,10.0,SE,9.2,-,N/A,,Clear,130,2012-12-14 01:55:00
7:15 PM,48.2,32.0,54,30.04,10.0,ESE,10.4,-,N/A,,Clear,120,2012-12-14 02:15:00
7:35 PM,48.2,33.8,58,30.04,10.0,SE,9.2,-,N/A,,Clear,130,2012-12-14 02:35:00
7:55 PM,48.2,35.6,62,30.04,10.0,SE,10.4,-,N/A,,Clear,130,2012-12-14 02:55:00
8:15 PM,48.2,35.6,62,30.04,10.0,ESE,6.9,-,N/A,,Clear,120,2012-12-14 03:15:00
8:35 PM,46.4,35.6,66,30.04,10.0,SE,6.9,-,N/A,,Clear,130,2012-12-14 03:35:00
8:55 PM,46.4,33.8,62,30.05,10.0,SE,6.9,-,N/A,,Clear,130,2012-12-14 03:55:00
9:15 PM,44.6,33.8,66,30.04,10.0,ESE,5.8,-,N/A,,Clear,110,2012-12-14 04:15:00
9:35 PM,44.6,33.8,66,30.05,10.0,ESE,6.9,-,N/A,,Clear,120,2012-12-14 04:35:00
9:55 PM,44.6,33.8,66,30.05,10.0,SE,6.9,-,N/A,,Clear,130,2012-12-14 04:55:00
10:15 PM,44.6,33.8,66,30.06,10.0,SE,3.5,-,N/A,,Clear,130,2012-12-14 05:15:00
10:55 PM,44.6,35.6,71,30.05,10.0,SE,9.2,-,N/A,,Clear,140,2012-12-14 05:55:00
11:15 PM,46.4,39.2,76,30.05,10.0,SSE,9.2,-,N/A,,Mostly Cloudy,150,2012-12-14 06:15:00
11:35 PM,46.4,41.0,81,30.04,10.0,SE,10.4,-,N/A,,Overcast,140,2012-12-14 06:35:00
11:55 PM,46.4,42.8,87,30.03,10.0,SE,11.5,-,N/A,,Overcast,140,2012-12-14 06:55:00